Year,Month,Day,Hour,Minute,Value (Times are PST for barometer in hPa)
2013,10,03,00,00,1022.76
2013,10,03,00,01,1022.77
2013,10,03,00,02,1022.79
2013,10,03,00,03,1022.80
2013,10,03,00,04,1022.82
2013,10,03,00,05,1022.79
2013,10,03,00,06,1022.79
2013,10,03,00,07,1022.79
2013,10,03,00,08,1022.77
2013,10,03,00,09,1022.83
2013,10,03,00,10,1022.84
2013,10,03,00,11,1022.86
2013,10,03,00,12,1022.86
2013,10,03,00,13,1022.86
2013,10,03,00,14,1022.87
2013,10,03,00,15,1022.88
2013,10,03,00,16,1022.86
2013,10,03,00,17,1022.86
2013,10,03,00,18,1022.89
2013,10,03,00,19,1022.89
2013,10,03,00,20,1022.88
2013,10,03,00,21,1022.86
2013,10,03,00,22,1022.89
2013,10,03,00,23,1022.90
2013,10,03,00,24,1022.92
2013,10,03,00,25,1022.89
2013,10,03,00,26,1022.89
2013,10,03,00,27,1022.89
2013,10,03,00,28,1022.89
2013,10,03,00,29,1022.89
2013,10,03,00,30,1022.89
2013,10,03,00,31,1022.89
2013,10,03,00,32,1022.90
2013,10,03,00,33,1022.93
2013,10,03,00,34,1022.95
2013,10,03,00,35,1022.93
2013,10,03,00,36,1022.94
2013,10,03,00,37,1022.96
2013,10,03,00,38,1022.96
2013,10,03,00,39,1022.99
2013,10,03,00,40,1022.96
2013,10,03,00,41,1022.96
2013,10,03,00,42,1022.96
2013,10,03,00,43,1022.97
2013,10,03,00,44,1022.99
2013,10,03,00,45,1023.00
2013,10,03,00,46,1023.02
2013,10,03,00,47,1023.00
2013,10,03,00,48,1023.03
2013,10,03,00,49,1023.03
2013,10,03,00,50,1023.03
2013,10,03,00,51,1023.07
2013,10,03,00,52,1023.10
2013,10,03,00,53,1023.10
2013,10,03,00,54,1023.10
2013,10,03,00,55,1023.10
2013,10,03,00,56,1023.11
2013,10,03,00,57,1023.13
2013,10,03,00,58,1023.13
2013,10,03,00,59,1023.13
2013,10,03,01,00,1023.13
2013,10,03,01,01,1023.13
2013,10,03,01,02,1023.13
2013,10,03,01,03,1023.16
2013,10,03,01,04,1023.15
2013,10,03,01,05,1023.10
2013,10,03,01,06,1023.13
2013,10,03,01,07,1023.16
2013,10,03,01,08,1023.13
2013,10,03,01,09,1023.16
2013,10,03,01,10,1023.13
2013,10,03,01,11,1023.15
2013,10,03,01,12,1023.13
2013,10,03,01,13,1023.16
2013,10,03,01,14,1023.17
2013,10,03,01,15,1023.20
2013,10,03,01,16,1023.20
2013,10,03,01,17,1023.23
2013,10,03,01,18,1023.21
2013,10,03,01,19,1023.26
2013,10,03,01,20,1023.24
2013,10,03,01,21,1023.27
2013,10,03,01,22,1023.30
2013,10,03,01,23,1023.27
2013,10,03,01,24,1023.30
2013,10,03,01,25,1023.30
2013,10,03,01,26,1023.33
2013,10,03,01,27,1023.33
2013,10,03,01,28,1023.34
2013,10,03,01,29,1023.37
2013,10,03,01,30,1023.40
2013,10,03,01,31,1023.40
2013,10,03,01,32,1023.44
2013,10,03,01,33,1023.47
2013,10,03,01,34,1023.47
2013,10,03,01,35,1023.48
2013,10,03,01,36,1023.51
2013,10,03,01,37,1023.53
2013,10,03,01,38,1023.51
2013,10,03,01,39,1023.58
2013,10,03,01,40,1023.64
2013,10,03,01,41,1023.64
2013,10,03,01,42,1023.67
2013,10,03,01,43,1023.68
2013,10,03,01,44,1023.73
2013,10,03,01,45,1023.67
2013,10,03,01,46,1023.67
2013,10,03,01,47,1023.68
2013,10,03,01,48,1023.77
2013,10,03,01,49,1023.74
2013,10,03,01,50,1023.74
2013,10,03,01,51,1023.77
2013,10,03,01,52,1023.77
2013,10,03,01,53,1023.78
2013,10,03,01,54,1023.84
2013,10,03,01,55,1023.85
2013,10,03,01,56,1023.87
2013,10,03,01,57,1023.85
2013,10,03,01,58,1023.88
2013,10,03,01,59,1023.91
2013,10,03,02,00,1023.92
2013,10,03,02,01,1023.94
2013,10,03,02,02,1023.94
2013,10,03,02,03,1023.94
2013,10,03,02,04,1023.94
2013,10,03,02,05,1023.94
2013,10,03,02,06,1023.95
2013,10,03,02,07,1023.99
2013,10,03,02,08,1024.01
2013,10,03,02,09,1023.98
2013,10,03,02,10,1024.02
2013,10,03,02,11,1024.08
2013,10,03,02,12,1024.08
2013,10,03,02,13,1024.09
2013,10,03,02,14,1024.15
2013,10,03,02,15,1024.14
2013,10,03,02,16,1024.11
2013,10,03,02,17,1024.10
2013,10,03,02,18,1024.08
2013,10,03,02,19,1024.09
2013,10,03,02,20,1024.15
2013,10,03,02,21,1024.15
2013,10,03,02,22,1024.16
2013,10,03,02,23,1024.21
2013,10,03,02,24,1024.18
2013,10,03,02,25,1024.18
2013,10,03,02,26,1024.18
2013,10,03,02,27,1024.21
2013,10,03,02,28,1024.21
2013,10,03,02,29,1024.21
2013,10,03,02,30,1024.21
2013,10,03,02,31,1024.22
2013,10,03,02,32,1024.25
2013,10,03,02,33,1024.28
2013,10,03,02,34,1024.25
2013,10,03,02,35,1024.25
2013,10,03,02,36,1024.28
2013,10,03,02,37,1024.28
2013,10,03,02,38,1024.29
2013,10,03,02,39,1024.32
2013,10,03,02,40,1024.35
2013,10,03,02,41,1024.35
2013,10,03,02,42,1024.35
2013,10,03,02,43,1024.39
2013,10,03,02,44,1024.41
2013,10,03,02,45,1024.39
2013,10,03,02,46,1024.42
2013,10,03,02,47,1024.42
2013,10,03,02,48,1024.45
2013,10,03,02,49,1024.45
2013,10,03,02,50,1024.45
2013,10,03,02,51,1024.46
2013,10,03,02,52,1024.52
2013,10,03,02,53,1024.55
2013,10,03,02,54,1024.56
2013,10,03,02,55,1024.59
2013,10,03,02,56,1024.58
2013,10,03,02,57,1024.56
2013,10,03,02,58,1024.59
2013,10,03,02,59,1024.60
2013,10,03,03,00,1024.65
2013,10,03,03,01,1024.65
2013,10,03,03,02,1024.62
2013,10,03,03,06,1024.58
2013,10,03,03,07,1024.55
2013,10,03,03,08,1024.56
2013,10,03,03,09,1024.58
2013,10,03,03,10,1024.55
2013,10,03,03,11,1024.55
2013,10,03,03,12,1024.55
2013,10,03,03,13,1024.56
2013,10,03,03,14,1024.58
2013,10,03,03,15,1024.55
2013,10,03,03,16,1024.55
2013,10,03,03,17,1024.54
2013,10,03,03,18,1024.51
2013,10,03,03,19,1024.49
2013,10,03,03,20,1024.51
2013,10,03,03,21,1024.48
2013,10,03,03,22,1024.48
2013,10,03,03,23,1024.49
2013,10,03,03,24,1024.52
2013,10,03,03,25,1024.52
2013,10,03,03,26,1024.52
2013,10,03,03,27,1024.51
2013,10,03,03,28,1024.51
2013,10,03,03,29,1024.58
2013,10,03,03,30,1024.55
2013,10,03,03,31,1024.56
2013,10,03,03,32,1024.58
2013,10,03,03,33,1024.56
2013,10,03,03,34,1024.59
2013,10,03,03,35,1024.59
2013,10,03,03,36,1024.59
2013,10,03,03,37,1024.57
2013,10,03,03,38,1024.53
2013,10,03,03,39,1024.55
2013,10,03,03,40,1024.56
2013,10,03,03,41,1024.59
2013,10,03,03,42,1024.60
2013,10,03,03,43,1024.64
2013,10,03,03,44,1024.63
2013,10,03,03,45,1024.66
2013,10,03,03,46,1024.69
2013,10,03,03,47,1024.70
2013,10,03,03,48,1024.72
2013,10,03,03,49,1024.73
2013,10,03,03,50,1024.74
2013,10,03,03,51,1024.71
2013,10,03,03,52,1024.78
2013,10,03,03,53,1024.77
2013,10,03,03,54,1024.81
2013,10,03,03,55,1024.78
2013,10,03,03,56,1024.77
2013,10,03,03,57,1024.79
2013,10,03,03,58,1024.80
2013,10,03,03,59,1024.83
2013,10,03,04,00,1024.87
2013,10,03,04,01,1024.91
2013,10,03,04,02,1024.96
2013,10,03,04,03,1024.96
2013,10,03,04,04,1024.97
2013,10,03,04,05,1024.99
2013,10,03,04,06,1024.99
2013,10,03,04,07,1025.00
2013,10,03,04,08,1025.04
2013,10,03,04,09,1025.09
2013,10,03,04,10,1025.09
2013,10,03,04,11,1025.10
2013,10,03,04,12,1025.14
2013,10,03,04,13,1025.15
2013,10,03,04,14,1025.14
2013,10,03,04,15,1025.16
2013,10,03,04,16,1025.17
2013,10,03,04,17,1025.22
2013,10,03,04,18,1025.20
2013,10,03,04,19,1025.20
2013,10,03,04,20,1025.21
2013,10,03,04,21,1025.23
2013,10,03,04,22,1025.24
2013,10,03,04,23,1025.27
2013,10,03,04,24,1025.31
2013,10,03,04,25,1025.34
2013,10,03,04,26,1025.37
2013,10,03,04,27,1025.38
2013,10,03,04,28,1025.39
2013,10,03,04,29,1025.37
2013,10,03,04,30,1025.37
2013,10,03,04,31,1025.36
2013,10,03,04,32,1025.34
2013,10,03,04,33,1025.38
2013,10,03,04,34,1025.39
2013,10,03,04,35,1025.38
2013,10,03,04,36,1025.40
2013,10,03,04,37,1025.40
2013,10,03,04,38,1025.40
2013,10,03,04,39,1025.40
2013,10,03,04,40,1025.41
2013,10,03,04,41,1025.46
2013,10,03,04,42,1025.56
2013,10,03,04,43,1025.52
2013,10,03,04,44,1025.51
2013,10,03,04,45,1025.56
2013,10,03,04,46,1025.54
2013,10,03,04,47,1025.58
2013,10,03,04,48,1025.60
2013,10,03,04,49,1025.60
2013,10,03,04,50,1025.60
2013,10,03,04,51,1025.61
2013,10,03,04,52,1025.63
2013,10,03,04,53,1025.60
2013,10,03,04,54,1025.61
2013,10,03,04,55,1025.67
2013,10,03,04,56,1025.67
2013,10,03,04,57,1025.68
2013,10,03,04,58,1025.72
2013,10,03,04,59,1025.77
2013,10,03,05,00,1025.77
2013,10,03,05,01,1025.78
2013,10,03,05,02,1025.81
2013,10,03,05,03,1025.82
2013,10,03,05,04,1025.84
2013,10,03,05,05,1025.84
2013,10,03,05,06,1025.84
2013,10,03,05,07,1025.85
2013,10,03,05,08,1025.88
2013,10,03,05,09,1025.91
2013,10,03,05,10,1025.93
2013,10,03,05,11,1025.96
2013,10,03,05,12,1025.92
2013,10,03,05,13,1025.88
2013,10,03,05,14,1025.91
2013,10,03,05,15,1025.92
2013,10,03,05,16,1025.94
2013,10,03,05,17,1025.95
2013,10,03,05,18,1025.97
2013,10,03,05,19,1025.97
2013,10,03,05,20,1025.97
2013,10,03,05,21,1025.97
2013,10,03,05,22,1025.96
2013,10,03,05,23,1025.95
2013,10,03,05,24,1025.97
2013,10,03,05,25,1025.97
2013,10,03,05,26,1025.97
2013,10,03,05,27,1025.97
2013,10,03,05,28,1025.98
2013,10,03,05,29,1026.02
2013,10,03,05,30,1026.03
2013,10,03,05,31,1026.02
2013,10,03,05,32,1026.04
2013,10,03,05,33,1026.04
2013,10,03,05,34,1026.04
2013,10,03,05,35,1026.04
2013,10,03,05,36,1026.05
2013,10,03,05,37,1026.09
2013,10,03,05,38,1026.06
2013,10,03,05,39,1026.12
2013,10,03,05,40,1026.15
2013,10,03,05,41,1026.18
2013,10,03,05,42,1026.18
2013,10,03,05,43,1026.18
2013,10,03,05,44,1026.19
2013,10,03,05,45,1026.21
2013,10,03,05,46,1026.22
2013,10,03,05,47,1026.25
2013,10,03,05,48,1026.26
2013,10,03,05,49,1026.28
2013,10,03,05,50,1026.28
2013,10,03,05,51,1026.27
2013,10,03,05,52,1026.26
2013,10,03,05,53,1026.29
2013,10,03,05,54,1026.30
2013,10,03,05,55,1026.27
2013,10,03,05,56,1026.25
2013,10,03,05,57,1026.25
2013,10,03,05,58,1026.26
2013,10,03,05,59,1026.27
2013,10,03,06,00,1026.22
2013,10,03,06,01,1026.24
2013,10,03,06,02,1026.23
2013,10,03,06,03,1026.27
2013,10,03,06,04,1026.25
2013,10,03,06,05,1026.25
2013,10,03,06,06,1026.25
2013,10,03,06,07,1026.25
2013,10,03,06,08,1026.25
2013,10,03,06,09,1026.26
2013,10,03,06,10,1026.28
2013,10,03,06,11,1026.28
2013,10,03,06,12,1026.28
2013,10,03,06,13,1026.29
2013,10,03,06,14,1026.36
2013,10,03,06,15,1026.38
2013,10,03,06,16,1026.37
2013,10,03,06,17,1026.36
2013,10,03,06,18,1026.38
2013,10,03,06,19,1026.37
2013,10,03,06,20,1026.35
2013,10,03,06,21,1026.33
2013,10,03,06,22,1026.29
2013,10,03,06,23,1026.34
2013,10,03,06,24,1026.32
2013,10,03,06,25,1026.35
2013,10,03,06,26,1026.36
2013,10,03,06,27,1026.38
2013,10,03,06,28,1026.40
2013,10,03,06,29,1026.43
2013,10,03,06,30,1026.39
2013,10,03,06,31,1026.41
2013,10,03,06,32,1026.40
2013,10,03,06,33,1026.39
2013,10,03,06,34,1026.41
2013,10,03,06,35,1026.42
2013,10,03,06,36,1026.44
2013,10,03,06,37,1026.42
2013,10,03,06,38,1026.44
2013,10,03,06,39,1026.41
2013,10,03,06,40,1026.42
2013,10,03,06,41,1026.45
2013,10,03,06,42,1026.45
2013,10,03,06,43,1026.45
2013,10,03,06,44,1026.46
2013,10,03,06,45,1026.48
2013,10,03,06,46,1026.48
2013,10,03,06,47,1026.48
2013,10,03,06,48,1026.48
2013,10,03,06,49,1026.47
2013,10,03,06,50,1026.46
2013,10,03,06,51,1026.53
2013,10,03,06,52,1026.55
2013,10,03,06,53,1026.55
2013,10,03,06,54,1026.54
2013,10,03,06,55,1026.53
2013,10,03,06,56,1026.55
2013,10,03,06,57,1026.55
2013,10,03,06,58,1026.56
2013,10,03,06,59,1026.58
2013,10,03,07,00,1026.59
2013,10,03,07,01,1026.61
2013,10,03,07,02,1026.56
2013,10,03,07,03,1026.59
2013,10,03,07,04,1026.62
2013,10,03,07,05,1026.64
2013,10,03,07,06,1026.68
2013,10,03,07,07,1026.66
2013,10,03,07,08,1026.68
2013,10,03,07,09,1026.65
2013,10,03,07,10,1026.65
2013,10,03,07,11,1026.66
2013,10,03,07,12,1026.69
2013,10,03,07,13,1026.70
2013,10,03,07,14,1026.73
2013,10,03,07,15,1026.76
2013,10,03,07,16,1026.79
2013,10,03,07,17,1026.80
2013,10,03,07,18,1026.82
2013,10,03,07,19,1026.82
2013,10,03,07,20,1026.82
2013,10,03,07,21,1026.82
2013,10,03,07,22,1026.82
2013,10,03,07,23,1026.82
2013,10,03,07,24,1026.83
2013,10,03,07,25,1026.89
2013,10,03,07,26,1026.88
2013,10,03,07,27,1026.87
2013,10,03,07,28,1026.93
2013,10,03,07,29,1026.95
2013,10,03,07,30,1026.93
2013,10,03,07,31,1026.97
2013,10,03,07,32,1027.01
2013,10,03,07,33,1026.97
2013,10,03,07,34,1027.02
2013,10,03,07,35,1027.01
2013,10,03,07,36,1027.00
2013,10,03,07,37,1027.02
2013,10,03,07,38,1027.01
2013,10,03,07,39,1026.99
2013,10,03,07,40,1026.99
2013,10,03,07,41,1026.98
2013,10,03,07,42,1026.97
2013,10,03,07,43,1027.03
2013,10,03,07,44,1027.07
2013,10,03,07,45,1027.12
2013,10,03,07,46,1027.08
2013,10,03,07,47,1027.03
2013,10,03,07,48,1027.06
2013,10,03,07,49,1027.07
2013,10,03,07,50,1027.12
2013,10,03,07,51,1027.10
2013,10,03,07,52,1027.17
2013,10,03,07,53,1027.18
2013,10,03,07,54,1027.16
2013,10,03,07,55,1027.17
2013,10,03,07,56,1027.20
2013,10,03,07,57,1027.22
2013,10,03,07,58,1027.19
2013,10,03,07,59,1027.21
2013,10,03,08,00,1027.30
2013,10,03,08,01,1027.31
2013,10,03,08,02,1027.34
2013,10,03,08,03,1027.35
2013,10,03,08,04,1027.35
2013,10,03,08,05,1027.44
2013,10,03,08,06,1027.46
2013,10,03,08,07,1027.47
2013,10,03,08,08,1027.49
2013,10,03,08,09,1027.47
2013,10,03,08,10,1027.49
2013,10,03,08,11,1027.48
2013,10,03,08,12,1027.58
2013,10,03,08,13,1027.59
2013,10,03,08,14,1027.57
2013,10,03,08,15,1027.57
2013,10,03,08,16,1027.57
2013,10,03,08,17,1027.57
2013,10,03,08,18,1027.58
2013,10,03,08,19,1027.64
2013,10,03,08,20,1027.67
2013,10,03,08,21,1027.66
2013,10,03,08,22,1027.61
2013,10,03,08,23,1027.68
2013,10,03,08,24,1027.69
2013,10,03,08,25,1027.68
2013,10,03,08,26,1027.69
2013,10,03,08,27,1027.67
2013,10,03,08,28,1027.68
2013,10,03,08,29,1027.71
2013,10,03,08,30,1027.75
2013,10,03,08,31,1027.77
2013,10,03,08,32,1027.78
2013,10,03,08,33,1027.80
2013,10,03,08,34,1027.81
2013,10,03,08,35,1027.87
2013,10,03,08,36,1027.88
2013,10,03,08,37,1027.90
2013,10,03,08,38,1027.91
2013,10,03,08,39,1027.96
2013,10,03,08,40,1027.95
2013,10,03,08,41,1028.01
2013,10,03,08,42,1028.01
2013,10,03,08,43,1028.01
2013,10,03,08,44,1028.01
2013,10,03,08,45,1028.02
2013,10,03,08,46,1028.04
2013,10,03,08,47,1028.03
2013,10,03,08,48,1028.02
2013,10,03,08,49,1028.07
2013,10,03,08,50,1028.07
2013,10,03,08,51,1028.07
2013,10,03,08,52,1028.07
2013,10,03,08,53,1028.07
2013,10,03,08,54,1028.08
2013,10,03,08,55,1028.11
2013,10,03,08,56,1028.12
2013,10,03,08,57,1028.15
2013,10,03,08,58,1028.17
2013,10,03,08,59,1028.15
2013,10,03,09,00,1028.18
2013,10,03,09,01,1028.18
2013,10,03,09,02,1028.21
2013,10,03,09,03,1028.21
2013,10,03,09,04,1028.21
2013,10,03,09,05,1028.22
2013,10,03,09,06,1028.23
2013,10,03,09,07,1028.21
2013,10,03,09,08,1028.25
2013,10,03,09,09,1028.31
2013,10,03,09,10,1028.31
2013,10,03,09,11,1028.31
2013,10,03,09,12,1028.32
2013,10,03,09,13,1028.38
2013,10,03,09,14,1028.38
2013,10,03,09,15,1028.36
2013,10,03,09,16,1028.42
2013,10,03,09,17,1028.43
2013,10,03,09,18,1028.39
2013,10,03,09,19,1028.41
2013,10,03,09,20,1028.41
2013,10,03,09,21,1028.40
2013,10,03,09,22,1028.38
2013,10,03,09,23,1028.38
2013,10,03,09,24,1028.39
2013,10,03,09,25,1028.45
2013,10,03,09,26,1028.44
2013,10,03,09,27,1028.42
2013,10,03,09,28,1028.46
2013,10,03,09,29,1028.50
2013,10,03,09,30,1028.46
2013,10,03,09,31,1028.50
2013,10,03,09,32,1028.45
2013,10,03,09,33,1028.44
2013,10,03,09,34,1028.40
2013,10,03,09,35,1028.36
2013,10,03,09,36,1028.38
2013,10,03,09,37,1028.38
2013,10,03,09,38,1028.41
2013,10,03,09,39,1028.41
2013,10,03,09,40,1028.42
2013,10,03,09,41,1028.44
2013,10,03,09,42,1028.41
2013,10,03,09,43,1028.40
2013,10,03,09,44,1028.38
2013,10,03,09,45,1028.39
2013,10,03,09,46,1028.41
2013,10,03,09,47,1028.41
2013,10,03,09,48,1028.41
2013,10,03,09,49,1028.41
2013,10,03,09,50,1028.41
2013,10,03,09,51,1028.42
2013,10,03,09,52,1028.45
2013,10,03,09,53,1028.46
2013,10,03,09,54,1028.49
2013,10,03,09,55,1028.51
2013,10,03,09,56,1028.52
2013,10,03,09,57,1028.54
2013,10,03,09,58,1028.51
2013,10,03,09,59,1028.48
2013,10,03,10,00,1028.52
2013,10,03,10,01,1028.56
2013,10,03,10,02,1028.58
2013,10,03,10,03,1028.58
2013,10,03,10,04,1028.58
2013,10,03,10,05,1028.58
2013,10,03,10,06,1028.58
2013,10,03,10,07,1028.57
2013,10,03,10,08,1028.56
2013,10,03,10,09,1028.59
2013,10,03,10,10,1028.62
2013,10,03,10,11,1028.62
2013,10,03,10,12,1028.61
2013,10,03,10,13,1028.58
2013,10,03,10,14,1028.58
2013,10,03,10,15,1028.59
2013,10,03,10,16,1028.62
2013,10,03,10,17,1028.62
2013,10,03,10,18,1028.63
2013,10,03,10,19,1028.66
2013,10,03,10,20,1028.68
2013,10,03,10,21,1028.65
2013,10,03,10,22,1028.66
2013,10,03,10,23,1028.69
2013,10,03,10,24,1028.71
2013,10,03,10,25,1028.68
2013,10,03,10,26,1028.69
2013,10,03,10,27,1028.72
2013,10,03,10,28,1028.72
2013,10,03,10,29,1028.72
2013,10,03,10,30,1028.72
2013,10,03,10,31,1028.73
2013,10,03,10,32,1028.74
2013,10,03,10,33,1028.72
2013,10,03,10,34,1028.73
2013,10,03,10,35,1028.75
2013,10,03,10,36,1028.74
2013,10,03,10,37,1028.73
2013,10,03,10,38,1028.79
2013,10,03,10,39,1028.79
2013,10,03,10,40,1028.79
2013,10,03,10,41,1028.80
2013,10,03,10,42,1028.82
2013,10,03,10,43,1028.83
2013,10,03,10,44,1028.86
2013,10,03,10,45,1028.91
2013,10,03,10,46,1028.89
2013,10,03,10,47,1028.92
2013,10,03,10,48,1028.93
2013,10,03,10,49,1028.96
2013,10,03,10,50,1028.99
2013,10,03,10,51,1029.00
2013,10,03,10,52,1029.02
2013,10,03,10,53,1028.99
2013,10,03,10,54,1028.99
2013,10,03,10,55,1028.99
2013,10,03,10,56,1028.99
2013,10,03,10,57,1028.98
2013,10,03,10,58,1028.95
2013,10,03,10,59,1028.92
2013,10,03,11,00,1028.92
2013,10,03,11,01,1028.93
2013,10,03,11,02,1028.94
2013,10,03,11,03,1028.92
2013,10,03,11,04,1028.92
2013,10,03,11,05,1028.91
2013,10,03,11,06,1028.89
2013,10,03,11,07,1028.88
2013,10,03,11,08,1028.86
2013,10,03,11,09,1028.89
2013,10,03,11,10,1028.89
2013,10,03,11,11,1028.90
2013,10,03,11,12,1028.92
2013,10,03,11,13,1028.93
2013,10,03,11,14,1028.94
2013,10,03,11,15,1028.92
2013,10,03,11,16,1028.94
2013,10,03,11,17,1029.01
2013,10,03,11,18,1028.98
2013,10,03,11,19,1028.96
2013,10,03,11,20,1029.00
2013,10,03,11,21,1029.02
2013,10,03,11,22,1029.02
2013,10,03,11,23,1029.02
2013,10,03,11,24,1029.00
2013,10,03,11,25,1029.02
2013,10,03,11,26,1028.99
2013,10,03,11,27,1028.99
2013,10,03,11,28,1028.98
2013,10,03,11,29,1028.95
2013,10,03,11,30,1028.96
2013,10,03,11,31,1028.99
2013,10,03,11,32,1029.00
2013,10,03,11,33,1029.03
2013,10,03,11,34,1029.07
2013,10,03,11,35,1029.09
2013,10,03,11,36,1029.10
2013,10,03,11,37,1029.12
2013,10,03,11,38,1029.13
2013,10,03,11,39,1029.20
2013,10,03,11,40,1029.26
2013,10,03,11,41,1029.25
2013,10,03,11,42,1029.23
2013,10,03,11,43,1029.23
2013,10,03,11,44,1029.22
2013,10,03,11,45,1029.17
2013,10,03,11,46,1029.22
2013,10,03,11,47,1029.19
2013,10,03,11,48,1029.18
2013,10,03,11,49,1029.17
2013,10,03,11,50,1029.20
2013,10,03,11,51,1029.24
2013,10,03,11,52,1029.28
2013,10,03,11,53,1029.26
2013,10,03,11,54,1029.30
2013,10,03,11,55,1029.33
2013,10,03,11,56,1029.34
2013,10,03,11,57,1029.36
2013,10,03,11,58,1029.35
2013,10,03,11,59,1029.30
2013,10,03,12,00,1029.33
2013,10,03,12,01,1029.33
2013,10,03,12,02,1029.34
2013,10,03,12,03,1029.36
2013,10,03,12,04,1029.37
2013,10,03,12,05,1029.39
2013,10,03,12,06,1029.36
2013,10,03,12,07,1029.36
2013,10,03,12,08,1029.36
2013,10,03,12,09,1029.34
2013,10,03,12,10,1029.36
2013,10,03,12,11,1029.36
2013,10,03,12,12,1029.34
2013,10,03,12,13,1029.36
2013,10,03,12,14,1029.37
2013,10,03,12,15,1029.39
2013,10,03,12,16,1029.38
2013,10,03,12,17,1029.36
2013,10,03,12,18,1029.39
2013,10,03,12,19,1029.40
2013,10,03,12,20,1029.42
2013,10,03,12,21,1029.40
2013,10,03,12,22,1029.45
2013,10,03,12,23,1029.44
2013,10,03,12,24,1029.47
2013,10,03,12,25,1029.51
2013,10,03,12,26,1029.53
2013,10,03,12,27,1029.52
2013,10,03,12,28,1029.50
2013,10,03,12,29,1029.51
2013,10,03,12,30,1029.56
2013,10,03,12,31,1029.52
2013,10,03,12,32,1029.50
2013,10,03,12,33,1029.49
2013,10,03,12,34,1029.47
2013,10,03,12,35,1029.49
2013,10,03,12,36,1029.47
2013,10,03,12,37,1029.50
2013,10,03,12,38,1029.50
2013,10,03,12,39,1029.50
2013,10,03,12,40,1029.50
2013,10,03,12,41,1029.49
2013,10,03,12,42,1029.47
2013,10,03,12,43,1029.50
2013,10,03,12,44,1029.50
2013,10,03,12,45,1029.50
2013,10,03,12,46,1029.50
2013,10,03,12,47,1029.49
2013,10,03,12,48,1029.46
2013,10,03,12,49,1029.45
2013,10,03,12,50,1029.42
2013,10,03,12,51,1029.39
2013,10,03,12,52,1029.39
2013,10,03,12,53,1029.36
2013,10,03,12,54,1029.36
2013,10,03,12,55,1029.34
2013,10,03,12,56,1029.38
2013,10,03,12,57,1029.33
2013,10,03,12,58,1029.34
2013,10,03,12,59,1029.36
2013,10,03,13,00,1029.36
2013,10,03,13,01,1029.36
2013,10,03,13,02,1029.36
2013,10,03,13,03,1029.39
2013,10,03,13,04,1029.39
2013,10,03,13,05,1029.39
2013,10,03,13,06,1029.39
2013,10,03,13,07,1029.39
2013,10,03,13,08,1029.37
2013,10,03,13,09,1029.39
2013,10,03,13,10,1029.37
2013,10,03,13,11,1029.39
2013,10,03,13,12,1029.36
2013,10,03,13,13,1029.36
2013,10,03,13,14,1029.32
2013,10,03,13,15,1029.30
2013,10,03,13,16,1029.32
2013,10,03,13,17,1029.29
2013,10,03,13,18,1029.27
2013,10,03,13,19,1029.32
2013,10,03,13,20,1029.29
2013,10,03,13,21,1029.28
2013,10,03,13,22,1029.23
2013,10,03,13,23,1029.22
2013,10,03,13,24,1029.19
2013,10,03,13,25,1029.20
2013,10,03,13,26,1029.22
2013,10,03,13,27,1029.19
2013,10,03,13,28,1029.18
2013,10,03,13,29,1029.17
2013,10,03,13,30,1029.23
2013,10,03,13,31,1029.22
2013,10,03,13,32,1029.17
2013,10,03,13,33,1029.21
2013,10,03,13,34,1029.13
2013,10,03,13,35,1029.15
2013,10,03,13,36,1029.13
2013,10,03,13,37,1029.15
2013,10,03,13,38,1029.10
2013,10,03,13,39,1029.11
2013,10,03,13,40,1029.09
2013,10,03,13,41,1029.09
2013,10,03,13,42,1029.09
2013,10,03,13,43,1029.09
2013,10,03,13,44,1029.06
2013,10,03,13,45,1029.06
2013,10,03,13,46,1029.09
2013,10,03,13,47,1029.09
2013,10,03,13,48,1029.08
2013,10,03,13,49,1029.06
2013,10,03,13,50,1029.06
2013,10,03,13,51,1029.06
2013,10,03,13,52,1029.06
2013,10,03,13,53,1029.06
2013,10,03,13,54,1029.05
2013,10,03,13,55,1029.02
2013,10,03,13,56,1029.00
2013,10,03,13,57,1029.03
2013,10,03,13,58,1029.06
2013,10,03,13,59,1029.06
2013,10,03,14,00,1029.08
2013,10,03,14,01,1029.06
2013,10,03,14,02,1029.06
2013,10,03,14,03,1029.10
2013,10,03,14,04,1029.16
2013,10,03,14,05,1029.16
2013,10,03,14,06,1029.19
2013,10,03,14,07,1029.16
2013,10,03,14,08,1029.15
2013,10,03,14,09,1029.12
2013,10,03,14,10,1029.12
2013,10,03,14,11,1029.11
2013,10,03,14,12,1029.09
2013,10,03,14,13,1029.12
2013,10,03,14,14,1029.09
2013,10,03,14,15,1029.12
2013,10,03,14,16,1029.09
2013,10,03,14,17,1029.06
2013,10,03,14,18,1029.06
2013,10,03,14,19,1029.06
2013,10,03,14,20,1029.07
2013,10,03,14,21,1028.99
2013,10,03,14,22,1029.03
2013,10,03,14,23,1029.07
2013,10,03,14,24,1029.08
2013,10,03,14,25,1029.06
2013,10,03,14,26,1029.06
2013,10,03,14,27,1029.09
2013,10,03,14,28,1029.05
2013,10,03,14,29,1029.02
2013,10,03,14,30,1029.03
2013,10,03,14,31,1029.05
2013,10,03,14,32,1029.02
2013,10,03,14,33,1028.99
2013,10,03,14,34,1029.02
2013,10,03,14,35,1029.02
2013,10,03,14,36,1029.02
2013,10,03,14,37,1029.03
2013,10,03,14,38,1029.06
2013,10,03,14,39,1029.05
2013,10,03,14,40,1029.00
2013,10,03,14,41,1029.07
2013,10,03,14,42,1029.11
2013,10,03,14,43,1029.06
2013,10,03,14,44,1029.09
2013,10,03,14,45,1029.11
2013,10,03,14,46,1029.10
2013,10,03,14,47,1029.15
2013,10,03,14,48,1029.12
2013,10,03,14,49,1029.12
2013,10,03,14,50,1029.13
2013,10,03,14,51,1029.15
2013,10,03,14,52,1029.11
2013,10,03,14,53,1029.09
2013,10,03,14,54,1029.09
2013,10,03,14,55,1029.12
2013,10,03,14,56,1029.13
2013,10,03,14,57,1029.19
2013,10,03,14,58,1029.19
2013,10,03,14,59,1029.15
2013,10,03,15,00,1029.11
2013,10,03,15,01,1029.09
2013,10,03,15,02,1029.06
2013,10,03,15,03,1029.09
2013,10,03,15,04,1029.07
2013,10,03,15,05,1029.00
2013,10,03,15,06,1029.05
2013,10,03,15,07,1029.02
2013,10,03,15,08,1029.02
2013,10,03,15,09,1029.02
2013,10,03,15,10,1028.99
2013,10,03,15,11,1029.02
2013,10,03,15,12,1029.02
2013,10,03,15,13,1029.03
2013,10,03,15,14,1029.05
2013,10,03,15,15,1029.03
2013,10,03,15,16,1029.05
2013,10,03,15,17,1029.03
2013,10,03,15,18,1029.05
2013,10,03,15,19,1029.02
2013,10,03,15,20,1029.03
2013,10,03,15,21,1029.06
2013,10,03,15,22,1029.06
2013,10,03,15,23,1029.09
2013,10,03,15,24,1029.09
2013,10,03,15,25,1029.09
2013,10,03,15,26,1029.13
2013,10,03,15,27,1029.16
2013,10,03,15,28,1029.16
2013,10,03,15,29,1029.16
2013,10,03,15,30,1029.16
2013,10,03,15,31,1029.15
2013,10,03,15,32,1029.13
2013,10,03,15,33,1029.16
2013,10,03,15,34,1029.16
2013,10,03,15,35,1029.19
2013,10,03,15,36,1029.19
2013,10,03,15,37,1029.19
2013,10,03,15,38,1029.19
2013,10,03,15,39,1029.20
2013,10,03,15,40,1029.22
2013,10,03,15,41,1029.20
2013,10,03,15,42,1029.23
2013,10,03,15,43,1029.24
2013,10,03,15,44,1029.29
2013,10,03,15,45,1029.26
2013,10,03,15,46,1029.26
2013,10,03,15,47,1029.26
2013,10,03,15,48,1029.29
2013,10,03,15,49,1029.29
2013,10,03,15,50,1029.30
2013,10,03,15,51,1029.32
2013,10,03,15,52,1029.27
2013,10,03,15,53,1029.29
2013,10,03,15,54,1029.30
2013,10,03,15,55,1029.34
2013,10,03,15,56,1029.38
2013,10,03,15,57,1029.33
2013,10,03,15,58,1029.34
2013,10,03,15,59,1029.39